Yuma MCAS, AZ

7:46 AM MST on October 21, 2017 (GMT -0700)
Yuma Marine Corps Air Station

Weather History for KNYL - December, 2012

Change the Weather History Date:

Thursday, December 6, 2012

  Actual Average Record
Temperature  
Mean Temperature 67 °F 58 °F  
Max Temperature 80 °F 70 °F 83 °F (1966)
Min Temperature 54 °F 47 °F 30 °F (1892)
Degree Days  
Heating Degree Days 0 7  
Month to date heating degree days 0 36  
Since 1 July heating degree days 22 104  
Cooling Degree Days 2 0  
Month to date cooling degree days 17 0  
Year to date cooling degree days 4931 4649  
Growing Degree Days 18 (Base 50)    
Moisture  
Dew Point 42 °F    
Average Humidity 44    
Maximum Humidity 64    
Minimum Humidity 23    
Precipitation  
Precipitation 0.00 in 0.01 in 1.01 in (1887)
Month to date precipitation 0.00 0.08  
Year to date precipitation 2.37 3.13  
Sea Level Pressure  
Sea Level Pressure 29.86 in    
Wind  
Wind Speed 3 mph (NNE)    
Max Wind Speed 13 mph    
Max Gust Speed 18 mph    
Visibility 10 miles    
Events      
T = Trace of Precipitation, MM = Missing Value Source: NWS Daily Summary

Daily Weather History Graph

Daily Weather History Graph

Search for Another Location

Airport or City:

Trip Planner

Search our weather history database for the weather conditions in past years. The results will help you decide how hot, cold, wet, or windy it might be!

Date:

Astronomy

Dec. 06, 2012 Rise Set
Actual Time 7:27 AM MST 5:32 PM MST
Civil Twilight 7:00 AM MST 5:59 PM MST
Nautical Twilight 6:29 AM MST 6:29 PM MST
Astronomical Twilight 5:59 AM MST 6:59 PM MST
Moon 12:09 AM MST (12/6) 12:40 PM MST (12/6)
Length of Visible Light 10h 59m
Length of Day
10h 05m
Waning Gibbous, 48% of the Moon is Illuminated
Dec 6
Waning Gibbous
Dec 13
New
Dec 19
First Quarter
Dec 28
Full
Jan 4
Last Quarter

Hourly Weather History & Observations

Time (MST) Temp. Dew Point Humidity Pressure Visibility Wind Dir Wind Speed Gust Speed Precip Events Conditions
12:55 AM 59.0 °F 44.1 °F 58% 29.90 in 10.0 mi Calm Calm - N/A   Scattered Clouds
1:55 AM 57.9 °F 45.0 °F 62% 29.89 in 10.0 mi Calm Calm - N/A   Scattered Clouds
2:55 AM 57.0 °F 43.0 °F 59% 29.88 in 10.0 mi Calm Calm - N/A   Scattered Clouds
3:55 AM 55.9 °F 44.1 °F 64% 29.87 in 10.0 mi North 3.5 mph - N/A   Scattered Clouds
4:55 AM 55.9 °F 42.1 °F 60% 29.86 in 10.0 mi Calm Calm - N/A   Scattered Clouds
5:06 AM - - N/A% - - North - - N/A   Unknown
5:55 AM 55.0 °F 42.1 °F 62% 29.87 in 10.0 mi NNE 3.5 mph - N/A   Scattered Clouds
6:55 AM 55.0 °F 42.1 °F 62% 29.88 in 10.0 mi NE 3.5 mph - N/A   Mostly Cloudy
7:55 AM 55.0 °F 41.0 °F 59% 29.89 in 10.0 mi NNE 4.6 mph - N/A   Mostly Cloudy
8:55 AM 61.0 °F 41.0 °F 48% 29.90 in 10.0 mi NE 4.6 mph - N/A   Mostly Cloudy
9:55 AM 66.9 °F 41.0 °F 39% 29.91 in 10.0 mi NE 6.9 mph - N/A   Mostly Cloudy
10:55 AM 70.0 °F 44.1 °F 39% 29.91 in 10.0 mi NE 5.8 mph - N/A   Mostly Cloudy
11:55 AM 73.9 °F 42.1 °F 32% 29.89 in 10.0 mi NNE 4.6 mph - N/A   Mostly Cloudy
12:55 PM 77.0 °F 42.1 °F 29% 29.85 in 10.0 mi NE 3.5 mph - N/A   Mostly Cloudy
1:00 PM - - N/A% - - North - - N/A   Unknown
1:55 PM 80.1 °F 41.0 °F 25% 29.82 in 10.0 mi NNE 10.4 mph - N/A   Mostly Cloudy
2:55 PM 79.0 °F 39.0 °F 24% 29.80 in 10.0 mi North 10.4 mph - N/A   Mostly Cloudy
3:55 PM 79.0 °F 39.9 °F 25% 29.80 in 10.0 mi NNE 9.2 mph - N/A   Mostly Cloudy
4:55 PM 77.0 °F 39.9 °F 26% 29.80 in 10.0 mi NNE 6.9 mph - N/A   Scattered Clouds
5:55 PM 73.0 °F 42.1 °F 33% 29.80 in 10.0 mi NE 4.6 mph - N/A   Scattered Clouds
6:55 PM 69.1 °F 42.1 °F 38% 29.82 in 10.0 mi Calm Calm - N/A   Partly Cloudy
7:55 PM 66.0 °F 42.1 °F 42% 29.83 in 10.0 mi Calm Calm - N/A   Partly Cloudy
8:55 PM 64.0 °F 42.1 °F 45% 29.85 in 10.0 mi Calm Calm - N/A   Partly Cloudy
9:55 PM 63.0 °F 42.1 °F 46% 29.85 in 10.0 mi Calm Calm - N/A   Clear
10:55 PM 61.0 °F 42.1 °F 50% 29.85 in 10.0 mi Calm Calm - N/A   Clear
11:55 PM 61.0 °F 43.0 °F 52% 29.85 in 10.0 mi Calm Calm - N/A   Clear